Regional Weather Roundup
Issued by NWS Midland/Odessa, TX

Home | Current Version | Previous Version | Text Only | Print | Product List | Glossary On
Versions: 1 2 3 4 5 6 7 8 9 10 11 12 13 14 15 16 17 18 19 20 21 22 23 24 25 26 27 28 29 30 31 32 33 34 35 36 37 38 39 40 41 42 43 44 45 46 47 48 49 50
000
ASUS44 KMAF 022201
RWRMAF
MIDLAND AREA WEATHER ROUNDUP
NATIONAL WEATHER SERVICE MIDLAND TX
500 PM CDT THU JUL 02 2015

...IN SOUTHWEST TEXAS AND SOUTHEAST NEW MEXICO...

CITY           SKY/WX    TMP DP  RH WIND       PRES   REMARKS
ALPINE         MOSUNNY   92  54  27 NE9G20    30.08F
ANDREWS        FAIR      91  60  35 SE15      29.98F
ARTESIA        SUNNY     95  59  30 SE13      29.96F
BIG SPRING     MOSUNNY   88  61  39 S14       30.00F
CARLSBAD       MOSUNNY   95  58  28 VRB3      29.93F
DRYDEN           N/A     90  65  43 SE9       29.93F
FORT STOCKTON  SUNNY     92  58  31 E6G18     29.94F
GUAD PASS      PTSUNNY   84  54  35 E16G22    30.12F
HOBBS          MOSUNNY   93  52  24 E12G18    29.99F
MARFA          MOSUNNY  N/A N/A N/A N12       30.06F
MIDLAND AIRPK  PTSUNNY   91  61  36 S13       29.99S
MIDLAND INTL   MOSUNNY   88  63  43 SE13      29.97F
ODESSA         PTSUNNY   89  62  40 SE13      29.98F
PECOS          SUNNY     94  57  29 NE12G17   29.92F
PRESIDIO       NOT AVBL
SEMINOLE       SUNNY     91  57  30 SE12G18   29.99F
SNYDER         SUNNY     86  66  51 S8        29.99S
WINK           PTSUNNY   92  58  31 E6        29.93F
$$
...OTHER STATIONS IN TEXAS...

CITY           SKY/WX    TMP DP  RH WIND       PRES   REMARKS
ABILENE        PTSUNNY   90  64  42 S10       29.95F
AMARILLO       PTSUNNY   86  60  41 S6        30.04S
AUSTIN         MOSUNNY   87  72  60 S18       29.96F
BROWNSVILLE    SUNNY     88  73  61 SE13      29.97S
CORPUS CHRISTI PTSUNNY   87  75  67 S18G25    29.97F
DALLAS FTW     PTSUNNY   91  66  43 SW20      29.92F
DEL RIO        MOSUNNY   89  67  47 SE16G26   29.90F
EL PASO        PTSUNNY   99  49  18 VRB3      29.92F
HOUSTON INT    PTSUNNY   90  72  55 S16       30.00F
LUBBOCK        PTSUNNY   90  62  39 E16G25    29.98S
SAN ANGELO     SUNNY     88  64  44 S14       29.97S
SAN ANTONIO    PTSUNNY   90  71  53 SE23G30   29.97F
WACO           MOSUNNY   90  70  51 S17       29.96F
WICHITA FALLS  NOT AVBL
$$
...OTHER LOCATIONS IN NEW MEXICO...

CITY           SKY/WX    TMP DP  RH WIND       PRES   REMARKS
ALAMAGORDO     MOSUNNY   97  46  17 SE5       29.95F
ALBUQUERQUE    PTSUNNY   88  48  25 E23G30    30.05F
CANNON AFB     NOT AVBL
CLOVIS         PTSUNNY   90  61  37 E10         N/A
HOLLOMAN AFB   MOSUNNY   98  47  17 S6        29.92F
ROSWELL        PTSUNNY   94  60  32 VRB5      29.96F
RUIDOSO        PTSUNNY   81  54  39 SE13      30.24F
SANTA FE       CLOUDY    82  48  30 E23G36    30.16F
TRUTH OR CONSE SUNNY     97  40  14 E7        29.99F
TUCUMCARI      PTSUNNY   91  56  30 VRB3      30.03F
$$



USA.gov is the U.S. government's official web portal to all federal, state and local government web resources and services.